• In Uzbekistan
  • List of Countries
  • For 7 days
  • Water Temperature
  • Weather Map
  • Weather Widgets
  • user-avatar
    Login

    Hourly Weather Mahackala

    Today, 22 August, Thursday

    Time Temperature Precipitation Wind Pressure Humidity
    00:00 +20°C° 0 mm 2 mps 674 mmHg 53%
    01:00 +20°C° 0 mm 2 mps 673 mmHg 55%
    02:00 +19°C° 0 mm 2 mps 673 mmHg 57%
    03:00 +20°C° 0 mm 1 mps 673 mmHg 58%
    04:00 +20°C° 0 mm 1 mps 673 mmHg 58%
    05:00 +21°C° 0 mm 1 mps 673 mmHg 57%
    06:00 +21°C° 0 mm 1 mps 673 mmHg 56%
    07:00 +23°C° 0 mm 2 mps 674 mmHg 49%
    08:00 +26°C° 0 mm 2 mps 674 mmHg 42%
    09:00 +28°C° 0 mm 2 mps 675 mmHg 35%
    10:00 +30°C° 0 mm 3 mps 675 mmHg 32%
    11:00 +31°C° 0 mm 3 mps 675 mmHg 29%
    12:00 +33°C° 0 mm 4 mps 675 mmHg 25%
    13:00 +32°C° 0 mm 4 mps 675 mmHg 26%
    14:00 +32°C° 0 mm 5 mps 675 mmHg 26%
    15:00 +32°C° 0 mm 5 mps 675 mmHg 27%
    16:00 +29°C° 0 mm 4 mps 674 mmHg 32%
    17:00 +28°C° 0 mm 4 mps 674 mmHg 37%
    18:00 +26°C° 0 mm 3 mps 673 mmHg 43%
    19:00 +24°C° 0 mm 2 mps 673 mmHg 46%
    20:00 +23°C° 0 mm 2 mps 673 mmHg 49%
    21:00 +20°C° 0 mm 2 mps 673 mmHg 52%
    22:00 +20°C° 0 mm 2 mps 673 mmHg 53%
    23:00 +20°C° 0 mm 2 mps 673 mmHg 53%

    Tomorrow, 23 August, Friday

    Time Temperature Precipitation Wind Pressure Humidity
    00:00 +20°C° 0 mm 2 mps 673 mmHg 53%
    01:00 +19°C° 0 mm 2 mps 673 mmHg 54%
    02:00 +19°C° 0 mm 2 mps 673 mmHg 54%
    03:00 +18°C° 0 mm 2 mps 673 mmHg 55%
    04:00 +19°C° 0 mm 2 mps 673 mmHg 54%
    05:00 +19°C° 0 mm 2 mps 673 mmHg 53%
    06:00 +19°C° 0 mm 2 mps 673 mmHg 52%
    07:00 +23°C° 0 mm 2 mps 673 mmHg 44%
    08:00 +26°C° 0 mm 2 mps 674 mmHg 37%
    09:00 +29°C° 0 mm 3 mps 675 mmHg 29%
    10:00 +30°C° 0 mm 3 mps 675 mmHg 27%
    11:00 +32°C° 0 mm 4 mps 675 mmHg 25%
    12:00 +33°C° 0 mm 5 mps 675 mmHg 23%
    13:00 +33°C° 0 mm 5 mps 675 mmHg 24%
    14:00 +33°C° 0 mm 6 mps 675 mmHg 25%
    15:00 +32°C° 0 mm 7 mps 675 mmHg 26%
    16:00 +30°C° 0 mm 5 mps 674 mmHg 31%
    17:00 +28°C° 0 mm 4 mps 674 mmHg 37%
    18:00 +26°C° 0 mm 3 mps 673 mmHg 42%
    19:00 +24°C° 0 mm 2 mps 673 mmHg 44%
    20:00 +23°C° 0 mm 2 mps 673 mmHg 47%
    21:00 +21°C° 0 mm 2 mps 673 mmHg 50%
    22:00 +20°C° 0 mm 2 mps 673 mmHg 49%
    23:00 +20°C° 0 mm 2 mps 673 mmHg 49%

    Day after tomorrow, 24 August, Saturday

    Time Temperature Precipitation Wind Pressure Humidity
    00:00 +20°C° 0 mm 2 mps 673 mmHg 49%
    01:00 +19°C° 0 mm 2 mps 673 mmHg 49%
    02:00 +19°C° 0 mm 2 mps 673 mmHg 50%
    03:00 +19°C° 0 mm 2 mps 673 mmHg 50%
    04:00 +19°C° 0 mm 2 mps 673 mmHg 49%
    05:00 +19°C° 0 mm 2 mps 673 mmHg 48%
    06:00 +20°C° 0 mm 2 mps 673 mmHg 47%
    07:00 +23°C° 0 mm 2 mps 674 mmHg 41%
    08:00 +26°C° 0 mm 1 mps 675 mmHg 35%
    09:00 +28°C° 0 mm 1 mps 675 mmHg 29%
    10:00 +29°C° 0 mm 2 mps 675 mmHg 29%
    11:00 +30°C° 0 mm 2 mps 675 mmHg 28%
    12:00 +31°C° 0 mm 3 mps 675 mmHg 28%
    13:00 +31°C° 0 mm 3 mps 675 mmHg 28%
    14:00 +31°C° 0 mm 3 mps 675 mmHg 29%
    15:00 +32°C° 0 mm 4 mps 675 mmHg 30%
    16:00 +30°C° 0 mm 3 mps 675 mmHg 37%
    17:00 +28°C° 0 mm 2 mps 674 mmHg 45%
    18:00 +26°C° 0 mm 1 mps 674 mmHg 52%
    19:00 +25°C° 0 mm 2 mps 674 mmHg 55%
    20:00 +23°C° 0 mm 2 mps 675 mmHg 58%
    21:00 +21°C° 0 mm 2 mps 675 mmHg 61%
    22:00 +21°C° 0.1 mm 2 mps 675 mmHg 60%
    23:00 +20°C° 0.1 mm 2 mps 674 mmHg 59%

    25 August, Sunday

    Time Temperature Precipitation Wind Pressure Humidity
    00:00 +20°C° 0.1 mm 2 mps 674 mmHg 59%
    01:00 +20°C° 0 mm 2 mps 674 mmHg 58%
    02:00 +21°C° 0 mm 1 mps 674 mmHg 57%
    03:00 +20°C° 0 mm 1 mps 674 mmHg 56%
    04:00 +21°C° 0 mm 1 mps 674 mmHg 55%
    05:00 +21°C° 0 mm 1 mps 674 mmHg 55%
    06:00 +22°C° 0 mm 1 mps 675 mmHg 54%
    07:00 +24°C° 0 mm 2 mps 675 mmHg 47%
    08:00 +26°C° 0 mm 2 mps 676 mmHg 40%
    09:00 +28°C° 0 mm 2 mps 676 mmHg 33%
    10:00 +29°C° 0 mm 3 mps 676 mmHg 30%
    11:00 +30°C° 0 mm 4 mps 676 mmHg 28%
    12:00 +32°C° 0 mm 5 mps 676 mmHg 25%
    13:00 +30°C° 0 mm 5 mps 676 mmHg 27%
    14:00 +30°C° 0 mm 5 mps 676 mmHg 29%
    15:00 +29°C° 0 mm 5 mps 675 mmHg 31%
    16:00 +28°C° 0 mm 5 mps 675 mmHg 35%
    17:00 +26°C° 0 mm 4 mps 675 mmHg 39%
    18:00 +24°C° 0 mm 3 mps 674 mmHg 44%
    19:00 +22°C° 0 mm 3 mps 674 mmHg 46%
    20:00 +21°C° 0 mm 2 mps 674 mmHg 48%
    21:00 +19°C° 0 mm 2 mps 674 mmHg 50%
    22:00 +19°C° 0 mm 2 mps 674 mmHg 50%
    23:00 +19°C° 0 mm 2 mps 674 mmHg 51%

    26 August, Monday

    Time Temperature Precipitation Wind Pressure Humidity
    00:00 +19°C° 0 mm 2 mps 674 mmHg 52%
    01:00 +18°C° 0 mm 2 mps 673 mmHg 52%
    02:00 +18°C° 0 mm 2 mps 673 mmHg 53%
    03:00 +18°C° 0 mm 2 mps 672 mmHg 53%
    04:00 +18°C° 0 mm 2 mps 673 mmHg 52%
    05:00 +19°C° 0 mm 1 mps 673 mmHg 51%
    06:00 +19°C° 0 mm 1 mps 673 mmHg 49%
    07:00 +21°C° 0 mm 2 mps 674 mmHg 45%
    08:00 +24°C° 0 mm 2 mps 674 mmHg 40%
    09:00 +26°C° 0 mm 2 mps 675 mmHg 36%
    10:00 +27°C° 0 mm 3 mps 675 mmHg 35%
    11:00 +28°C° 0 mm 3 mps 675 mmHg 34%
    12:00 +29°C° 0 mm 4 mps 676 mmHg 34%
    13:00 +28°C° 0 mm 4 mps 675 mmHg 34%
    14:00 +28°C° 0 mm 3 mps 675 mmHg 34%
    15:00 +28°C° 0 mm 3 mps 675 mmHg 34%
    16:00 +25°C° 0.6 mm 3 mps 675 mmHg 45%
    17:00 +23°C° 0.6 mm 2 mps 674 mmHg 55%
    18:00 +20°C° 0.6 mm 2 mps 674 mmHg 66%
    19:00 +19°C° 0.2 mm 2 mps 674 mmHg 68%
    20:00 +19°C° 0.2 mm 2 mps 675 mmHg 70%
    21:00 +19°C° 0.2 mm 2 mps 675 mmHg 72%
    22:00 +20°C° 0 mm 1 mps 676 mmHg 72%
    23:00 +20°C° 0 mm 1 mps 676 mmHg 72%

    27 August, Tuesday

    Time Temperature Precipitation Wind Pressure Humidity
    00:00 +20°C° 0 mm 1 mps 676 mmHg 72%
    01:00 +19°C° 0 mm 1 mps 676 mmHg 74%
    02:00 +19°C° 0 mm 1 mps 676 mmHg 76%
    03:00 +18°C° 0 mm 1 mps 676 mmHg 78%
    04:00 +18°C° 0 mm 1 mps 676 mmHg 77%
    05:00 +18°C° 0 mm 1 mps 677 mmHg 77%
    06:00 +18°C° 0 mm 1 mps 677 mmHg 76%
    07:00 +20°C° 0 mm 1 mps 678 mmHg 70%
    08:00 +20°C° 0 mm 2 mps 678 mmHg 65%
    09:00 +21°C° 0 mm 3 mps 679 mmHg 59%
    10:00 +22°C° 0 mm 3 mps 679 mmHg 57%
    11:00 +22°C° 0 mm 4 mps 679 mmHg 56%
    12:00 +23°C° 0 mm 5 mps 679 mmHg 54%
    13:00 +22°C° 0.2 mm 4 mps 679 mmHg 60%
    14:00 +21°C° 0.2 mm 4 mps 678 mmHg 66%
    15:00 +20°C° 0.2 mm 4 mps 678 mmHg 71%
    16:00 +19°C° 0 mm 3 mps 678 mmHg 74%
    17:00 +18°C° 0 mm 3 mps 678 mmHg 77%
    18:00 +17°C° 0 mm 3 mps 678 mmHg 80%
    19:00 +17°C° 0 mm 2 mps 677 mmHg 83%
    20:00 +16°C° 0 mm 2 mps 677 mmHg 85%
    21:00 +15°C° 0 mm 1 mps 677 mmHg 88%
    22:00 +15°C° 0 mm 2 mps 677 mmHg 88%
    23:00 +15°C° 0 mm 2 mps 677 mmHg 88%
    Show more